Location: Holyhead Bay
(53.3667°N, 4.6667°W)
Time: 12:38:49
(UTC+00:00)

IRIDIUM 33 DEB - Pass Details

Date: 03 October 2021
Orbit: 581 x 600 km, 86.4° (Epoch: 26 October)

Event Time Altitude Azimuth Distance (km) Brightness Sun altitude
Rises 03:15:04 0° 1° (N) 2,847 ? -27.6°
Reaches altitude 10° 03:17:29 10° 12° (NNE) 1,936 ? -27.3°
Maximum altitude 03:21:18 31° 76° (ENE) 1,039 ? -26.8°
Drops below altitude 10° 03:25:04 10° 140° (SE) 1,909 ? -26.4°
Enters shadow 03:25:36 - 143° (SE) 2,106 ? -26.3°
